C/2005 H1 ( LINEAR )

Japanese version
Home page
Updated on November 12, 2005

---------------------------------------------------------------------

* Profile

Discovery Date April 30, 2005
Magnitude 20.3 mag
Discoverer Lincoln Laboratory Near-Earth Asteroid Research project

* Orbital Elements

Epoch 2004 Nov. 11.0 TT = JDT 2453320.5
T 2004 Oct. 28.38358 TT                                 MPC
q   4.7683529            (2000.0)            P               Q
z  +0.0215950      Peri.   95.19348     -0.16811862     -0.30352295
 +/-0.0000000      Node    71.48851     -0.42774273     -0.83471936
e   0.8970276      Incl.   81.51271     +0.88812853     -0.45947515

* Finding Charts

* Magnitudes Graph

        m1 = 9.0 + 5 log d + 10.0 log r

---------------------------------------------------------------------

The orbital elements are published on M.P.E.C. 2005-O04.
The charts are made with StellaNavigator Ver.2.0 for Windows (AstroArts / ASCII).
The magnitudes graphs are made with Comet for Windows.

---------------------------------------------------------------------

Copyright(C) Seiichi Yoshida (comet@aerith.net). All rights reserved.